Overview Statistics Trail Chart Weather Telemetry Raw packets
 

This is the latest recevied weather packets stored in our database for station/object DL0BB-10. If no packets are shown the sender has not sent any weather packets the latest 10 day(s).

<< 7 8 9 10 11 12 13 >>
Time Temp. Humidity Pressure Rain* Wind** Luminosity Snow
1788517796 26.11° C 39% 1017.9 hPa - - - -
1788516895 26.11° C 38% 1018.1 hPa - - - -
1788515995 26.67° C 38% 1018.4 hPa - - - -
1788515095 25.56° C 39% 1018.6 hPa - - - -
1788514195 25.56° C 39% 1018.7 hPa - - - -
1788513294 26.11° C 37% 1018.9 hPa - - - -
1788512393 26.11° C 38% 1018.8 hPa - - - -
1788511498 25.56° C 39% 1019 hPa - - - -
1788510598 25.56° C 38% 1019.2 hPa - - - -
1788509698 26.11° C 37% 1019.1 hPa - - - -
1788508798 25.56° C 39% 1019.1 hPa - - - -
1788507898 25° C 39% 1019.2 hPa - - - -
1788506998 25.56° C 38% 1019.2 hPa - - - -
1788506098 26.11° C 37% 1019.2 hPa - - - -
1788505197 25° C 39% 1019.6 hPa - - - -
1788504297 25° C 39% 1019.6 hPa - - - -
1788503397 25.56° C 38% 1019.7 hPa - - - -
1788502497 26.11° C 37% 1019.8 hPa - - - -
1788501596 25° C 40% 1019.7 hPa - - - -
1788500696 25° C 39% 1019.7 hPa - - - -
1788499796 25.56° C 38% 1019.7 hPa - - - -
1788498895 25.56° C 38% 1019.8 hPa - - - -
1788497995 25° C 40% 1019.9 hPa - - - -
1788497095 25° C 39% 1019.9 hPa - - - -
1788496194 25.56° C 38% 1020.1 hPa - - - -

* Rain since midnight (hover to see other rain measurements)
** Current wind speed in m/s (hover to see current wind gust speed)